Regional Weather Roundup
Issued by NWS

Home | Current Version | Previous Version | Text Only | Print | Product List | Glossary On
Versions: 1 2 3 4 5 6 7 8 9 10 11 12 13 14 15 16 17 18 19 20 21 22 23 24 25 26 27 28 29 30 31 32 33 34 35 36 37 38 39 40 41 42 43 44 45 46 47 48 49 50
000
ASUS45 KSLC 172010
RWRUT

UTAH REGIONAL WEATHER ROUNDUP
NATIONAL WEATHER SERVICE SALT LAKE CITY UT
100 PM MST WED JAN 17 2018

UTZ001>011-023>025-172100-

NORTHERN UTAH

CITY           SKY/WX    TMP DP  RH WIND       PRES   REMARKS
BRIGHAM CITY   MOSUNNY   44  26  49 S5        30.38F
DUGWAY         PTSUNNY   46  30  54 VRB1      30.36F
HILL AFB       SUNNY     46  25  45 CALM      30.36F
LOGAN          SUNNY     47  26  44 NE3       30.37F
OGDEN          SUNNY     46  26  45 VRB6      30.36F
SALT LAKE CITY PTSUNNY   51  27  39 CALM      30.37F
TOOELE VALLEY  SUNNY     43  32  65 N3        30.36F
WENDOVER       SUNNY     41  29  62 E6        30.38F
HEBER CITY       N/A     41  21  45 CALM      30.36F
WEST JORDAN    SUNNY     46  28  48 SE5       30.37F

$$

UTZ011>015-024>027-172100-

CENTRAL/NORTHEAST UTAH

CITY           SKY/WX    TMP DP  RH WIND       PRES   REMARKS
PROVO AIRPORT  SUNNY     40  28  62 W6        30.40F
MOAB/CANYONLAN SUNNY     43  15  32 CALM      30.38F
DELTA          SUNNY     43  32  65 SE3       30.37F
PRICE          SUNNY     40  19  43 VRB3      30.36F
RICHFIELD      SUNNY     46  30  53 CALM      30.37F
ROOSEVELT      SUNNY     37  10  32 CALM      30.44F
VERNAL         SUNNY     36  11  35 CALM      30.41F

$$

UTZ013>016-019>022-027-172100-

SOUTHERN UTAH

CITY           SKY/WX    TMP DP  RH WIND       PRES   REMARKS
BRYCE CANYON   SUNNY     46  27  47 N6        30.37F
CEDAR CITY     SUNNY     48  29  47 VRB5      30.35F
MILFORD        SUNNY     47  32  56 N10       30.36F
ST GEORGE      CLEAR     51  31  46 CALM      30.32F
HANKSVILLE     SUNNY     45  16  31 CALM      30.41F
KANAB          SUNNY     55  21  26 CALM      30.35F
BLANDING         N/A     43  21  41 SW7       30.41F

$$

REGIONAL REPORTS     COLORADO/ARIZONA

CITY           SKY/WX    TMP DP  RH WIND       PRES   REMARKS
CRAIG, CO      SUNNY     30   9  41 S3        30.39F
GRAND JUNCTION SUNNY     40  11  30 CALM      30.41F
RIFLE, CO      SUNNY     38  10  31 MISG      30.39F
MONTROSE, CO   SUNNY     37  13  37 CALM      30.39F
CORTEZ, CO     SUNNY     40  21  46 S13       30.33F WCI  32
COLORADO CITY    N/A     57  28  33 W3        30.35F
PAGE, AZ       SUNNY     48  21  34 VRB3      30.35F
GRAND CANYON   SUNNY     53  21  28 NE8       30.34F
KINGMAN, AZ    SUNNY     63  31  30 N6        30.26F
FLAGSTAFF, AZ  SUNNY     48  18  30 NE12G17   30.33F

$$

REGIONAL REPORTS    NEVADA/IDAHO/WYOMING

CITY           SKY/WX    TMP DP  RH WIND       PRES   REMARKS
LAS VEGAS, NV  MOSUNNY   63  33  32 CALM      30.26F
ELY, NY        MOSUNNY   50  28  42 NE3       30.32F
ELKO, NV       CLOUDY    38  30  73 CALM      30.35S
POCATELLO, ID  PTSUNNY   40  30  67 E6        30.36F
BURLEY, ID     PTSUNNY   42  32  67 NE17G23   30.32F
FORT BRIDGER,    N/A     43  26  51 W9        30.39F
EVANSTON, WY   SUNNY     38  26  62 SW8       30.36F WCI  32
ROCK SPRINGS,  SUNNY     38  21  50 W13       30.34F WCI  30

$$



USA.gov is the U.S. government's official web portal to all federal, state and local government web resources and services.